This is the latest recevied weather packets stored in our database for station/object KD8NVS-13. If no packets are shown the sender has not sent any weather packets the latest 10 day(s).
| Time | Temp. | Humidity | Pressure | Rain* | Wind** | Luminosity | Snow |
|---|---|---|---|---|---|---|---|
| 1778284473 | 16.67° C | 60% | 1000.1 hPa | 0 mm | - | 5 W/m² | - |
| 1778284169 | 16.67° C | 61% | 999.8 hPa | 0 mm | - | 10 W/m² | - |
| 1778283866 | 16.67° C | 60% | 999.8 hPa | 0 mm | - | 8 W/m² | - |
| 1778283564 | 17.22° C | 59% | 999.8 hPa | 0 mm | - | 6 W/m² | - |
| 1778283263 | 17.22° C | 59% | 999.8 hPa | 0 mm | - | 6 W/m² | - |
| 1778282959 | 17.78° C | 56% | 999.3 hPa | 0 mm | - | 11 W/m² | - |
| 1778282656 | 17.78° C | 52% | 999.8 hPa | 0 mm | - | 6 W/m² | - |
| 1778282354 | 17.78° C | 53% | 999.8 hPa | 0 mm | - | 6 W/m² | - |
| 1778282051 | 17.78° C | 53% | 999.8 hPa | 0 mm | - | 6 W/m² | - |
| 1778281748 | 18.33° C | 52% | 999.8 hPa | 0 mm | - | 6 W/m² | - |
| 1778281444 | 18.33° C | 51% | 999.8 hPa | 0 mm | - | 15 W/m² | - |
| 1778281142 | 18.33° C | 50% | 999.8 hPa | 0 mm | - | 21 W/m² | - |
| 1778280838 | 18.33° C | 49% | 999.8 hPa | 0 mm | - | 26 W/m² | - |
| 1778280536 | 18.89° C | 47% | 999.8 hPa | 0 mm | - | 28 W/m² | - |
| 1778280233 | 18.89° C | 48% | 999.8 hPa | 0 mm | - | 31 W/m² | - |
| 1778279931 | 18.89° C | 47% | 999.8 hPa | 0 mm | - | 38 W/m² | - |
| 1778279628 | 18.89° C | 46% | 999.3 hPa | 0 mm | - | 47 W/m² | - |
| 1778279325 | 18.89° C | 46% | 999.8 hPa | 0 mm | - | 48 W/m² | - |
| 1778279022 | 18.89° C | 45% | 999.8 hPa | 0 mm | - | 47 W/m² | - |
| 1778278719 | 18.89° C | 46% | 999.3 hPa | 0 mm | - | 43 W/m² | - |
| 1778278414 | 18.89° C | 47% | 999.3 hPa | 0 mm | - | 33 W/m² | - |
| 1778278111 | 18.89° C | 46% | 999.8 hPa | 0 mm | - | 32 W/m² | - |
| 1778277807 | 18.89° C | 45% | 999.8 hPa | 0 mm | - | 33 W/m² | - |
| 1778277504 | 18.89° C | 45% | 999.3 hPa | 0 mm | - | 31 W/m² | - |
| 1778277201 | 19.44° C | 44% | 999.3 hPa | 0 mm | - | 29 W/m² | - |
* Rain latest hour (hover to see other rain measurements)
** Current wind speed in m/s (hover to see current wind gust speed)